User: anonymous   Login
Location: Unspecified
(0.0000°N, 0.0000°E)
Time: 23:36:12
(UTC+00:00)
Language:

PAYLOAD C - Orbit

View from above orbital plane
View from above orbital plane
View from above satellite
View from above satellite

Ground track
Ground track

The orbit data is extracted from the following two-line orbital elements,

1 27842U 03031C   21023.76409547  .00000042  00000-0  38665-4 0  9998
2 27842  98.6846  32.7098 0010385 109.7281 250.5018 14.22299970911603
Epoch (UTC): 23 January 2021 18:20:17
Eccentricity: 0.0010385
inclination: 98.6846°
perigee height: 810 km
apogee height: 825 km
right ascension of ascending node: 32.7098°
argument of perigee: 109.7281°
revolutions per day: 14.22299970
mean anomaly at epoch: 250.5018°
orbit number at epoch: 91160

The dashed part of the orbit path shows where the satellite is in the earth's shadow,  

DLR